GFSCGP_sfc_30mbdewp_000.txt.gz
Dewpoint
29 25 23 22 21 20 19 19 16 16 24 24 22 23 25 31 33 31 31 31 31 31 33 30 27 23 23 24 23 23 24 24 25 27 27 27 27 27 29 30 29 29 31 32
26 24 24 21 22 20 20 20 16 16 25 24 24 24 24 24 31 32 31 31 31 31 32 32 28 23 22 22 22 22 23 25 26 28 28 28 27 28 29 31 30 30 30 30
23 22 22 22 22 22 22 19 16 15 22 23 23 23 22 22 22 30 33 32 31 31 31 31 29 25 23 22 22 23 23 24 27 26 28 29 29 30 29 28 29 30 28 29
23 23 21 20 18 19 17 21 17 19 18 16 22 17 18 18 22 21 26 32 32 31 32 31 29 26 23 23 23 24 24 23 25 26 27 28 28 28 28 28 29 28 28 27
22 22 21 19 18 18 19 24 22 22 21 20 20 19 19 19 19 21 22 26 32 32 32 33 31 28 23 23 25 24 24 23 24 24 27 28 28 29 29 28 27 27 27 28
22 24 23 21 21 22 26 24 24 24 23 20 20 19 17 19 19 20 22 24 29 32 32 33 32 31 24 24 27 27 26 24 25 26 27 27 27 27 27 27 27 27 28 28
23 22 22 22 24 25 25 21 17 23 24 20 18 15 17 18 19 16 21 26 29 31 32 33 31 31 27 25 28 28 28 28 27 26 25 23 25 26 26 25 26 26 27 28
18 17 22 22 23 23 25 21 16 10 15 18 19 16 16 17 20 21 25 26 30 31 32 32 30 31 29 28 29 28 28 29 27 25 23 23 22 26 26 25 26 26 27 27
17 17 21 22 22 22 24 23 23 20 19 17 16 17 17 16 19 22 23 25 30 31 32 31 30 31 31 29 29 29 29 28 26 25 22 19 18 20 24 25 25 26 28 29
20 18 21 24 24 23 22 26 22 21 13 10 12 11 15 15 18 19 21 24 28 31 31 30 30 30 31 30 30 30 29 27 26 25 21 18 19 20 22 24 24 26 27 29
23 22 23 26 24 22 23 24 24 22 17 10 9 12 14 11 11 18 18 21 27 31 31 30 29 29 30 29 29 27 26 24 22 21 19 19 20 21 21 21 23 24 27 27
25 24 22 24 26 25 24 22 23 17 15 18 17 16 19 19 12 12 16 20 25 31 32 30 28 27 28 28 26 24 22 22 22 21 18 19 19 20 21 22 22 24 24 25
26 25 22 23 26 27 25 23 22 22 20 18 15 16 19 17 18 14 15 20 24 27 30 29 28 26 26 25 25 22 22 21 21 17 18 19 20 20 22 23 24 24 25 25
32 26 23 21 22 26 24 24 24 22 20 19 19 20 21 16 15 18 19 20 23 26 29 29 28 26 24 23 22 21 20 21 19 17 18 19 21 21 23 24 24 24 25 25
33 26 25 25 25 25 25 24 24 23 23 21 20 21 22 23 24 19 19 22 22 24 26 27 28 26 25 23 20 20 19 18 16 16 18 20 21 22 23 23 24 25 26 25
40 36 33 26 25 25 24 25 26 24 24 24 23 23 25 25 24 24 21 22 23 23 26 27 28 28 26 22 21 19 18 16 16 17 18 19 22 21 22 23 25 25 25 27
34 34 35 33 29 25 24 25 25 26 26 24 23 24 26 26 25 25 26 24 23 24 26 27 28 28 27 23 21 19 18 16 16 17 16 18 18 20 21 23 24 25 26 27
33 33 33 31 36 27 27 28 27 27 27 27 26 26 27 28 30 30 27 27 23 24 24 27 28 28 27 25 21 18 15 15 15 15 17 18 18 20 22 23 25 26 27 27
38 36 32 31 32 34 29 29 28 27 27 29 27 28 28 28 30 30 27 24 26 24 24 25 27 28 27 24 19 17 17 17 17 18 18 19 19 21 24 25 26 27 28 28
36 39 36 33 30 29 34 31 30 27 24 29 30 30 30 30 29 30 30 26 23 23 25 26 26 27 24 20 19 19 19 19 19 20 20 20 21 24 25 26 26 28 28 26
26 32 29 28 25 33 38 32 31 24 26 28 29 29 29 29 31 31 26 28 24 26 26 27 25 21 20 20 20 20 20 20 21 21 20 22 23 25 25 26 27 27 26 27
26 26 26 29 25 25 40 37 33 37 34 30 30 30 27 32 27 24 25 24 25 26 24 21 19 18 18 20 19 19 19 21 21 20 22 23 24 25 25 25 26 26 26 28
22 32 31 32 31 36 36 41 39 37 38 31 30 33 33 30 26 25 26 26 26 24 21 21 19 18 18 18 19 18 20 20 20 21 22 24 24 24 24 24 24 24 27 29
22 26 31 33 31 34 36 33 34 39 40 38 32 32 32 31 27 25 26 26 25 23 22 21 20 20 20 19 20 19 20 21 21 22 22 23 24 24 24 25 25 25 27 30
27 28 26 25 26 30 33 36 36 38 41 40 36 34 32 32 30 26 26 25 25 24 23 21 20 20 21 21 19 20 21 22 22 23 24 24 24 24 25 25 25 26 29 31
28 29 29 29 31 30 29 31 35 39 39 39 37 36 32 31 31 27 25 25 24 23 22 21 22 22 20 19 19 20 22 23 24 24 25 25 26 26 27 27 27 29 31 32

GFSCGP_sfc_30mbdewp_003.txt.gz
Dewpoint
29 24 23 24 23 22 21 20 19 19 23 24 25 25 26 32 32 31 31 31 31 32 33 31 29 27 26 24 23 23 24 23 26 26 26 27 26 27 29 29 29 28 30 31
27 25 25 26 25 22 20 19 19 20 25 23 24 24 25 28 32 32 31 31 31 32 33 31 27 25 24 23 23 22 23 24 26 27 28 28 27 28 29 31 30 29 30 28
26 25 25 26 24 22 21 20 20 19 22 24 23 22 22 23 26 31 33 32 31 31 32 31 27 23 22 22 23 22 23 24 27 26 28 29 30 29 29 29 27 30 30 28
26 26 24 22 21 22 19 24 22 20 19 16 22 14 20 19 20 23 29 32 31 31 32 32 28 23 22 21 22 22 23 24 26 27 27 27 27 27 28 27 29 28 27 27
23 22 23 21 20 20 19 23 22 22 20 21 20 19 19 20 19 19 22 31 32 31 32 32 30 27 23 21 21 22 24 23 26 26 27 27 28 29 29 29 26 27 27 29
26 26 23 22 23 23 26 24 24 25 24 18 20 17 10 15 16 17 21 25 32 32 32 32 31 28 24 22 22 23 23 23 24 26 27 27 27 28 28 27 27 27 28 29
21 24 23 23 22 26 24 22 17 17 22 15 17 17 14 17 20 19 20 23 30 32 32 32 30 28 24 22 24 25 24 24 25 26 26 26 27 26 26 26 26 26 27 26
17 12 23 22 22 21 24 20 15 9 14 13 24 20 20 19 19 20 20 23 29 32 32 32 31 29 26 23 26 26 26 26 26 26 26 25 23 25 27 27 27 26 26 27
19 18 24 23 24 23 24 22 20 16 18 17 16 18 20 20 20 23 23 28 29 32 32 32 32 32 27 24 26 27 27 27 28 26 25 22 22 22 25 27 27 26 27 29
22 18 20 23 23 24 24 26 21 21 15 13 13 15 13 13 13 19 23 26 30 31 32 32 31 31 30 27 28 28 28 28 28 27 24 22 20 19 22 23 24 26 28 27
24 22 21 25 23 21 23 23 25 22 20 12 10 11 15 13 15 17 22 24 29 31 31 32 30 31 32 30 28 29 28 28 28 26 24 22 19 20 21 22 23 24 25 27
28 23 21 21 27 25 23 21 22 21 20 19 16 14 15 12 15 18 20 23 26 32 32 31 30 30 31 30 29 28 29 28 28 26 24 21 20 20 21 22 22 24 25 26
41 32 22 21 25 28 25 24 23 22 21 18 16 16 19 18 17 18 18 20 24 30 32 31 29 28 30 29 29 28 27 26 25 23 21 19 19 20 20 22 23 24 25 26
41 36 31 24 22 24 25 25 25 23 21 20 20 19 19 17 16 16 17 20 23 28 31 31 29 27 27 28 26 25 24 23 23 21 19 18 19 20 21 22 24 25 25 25
38 35 37 35 34 34 31 24 25 24 23 20 20 20 21 21 21 16 17 20 22 26 30 31 29 27 26 26 25 23 22 22 22 20 18 18 20 21 21 23 23 24 24 25
34 30 31 24 31 34 32 33 34 24 24 23 22 21 24 24 24 24 21 18 21 25 28 29 29 28 25 24 23 22 21 21 21 19 18 19 20 21 22 22 22 23 26 26
33 29 26 22 27 29 25 31 33 33 25 23 22 24 25 25 25 25 25 22 21 23 25 28 29 28 26 24 21 20 20 19 18 17 18 18 20 21 21 22 23 25 25 27
31 29 30 26 27 21 21 36 37 35 33 29 26 26 27 26 27 28 28 27 23 22 25 27 28 29 27 24 22 20 19 17 16 17 17 18 18 19 20 22 24 26 26 26
29 31 29 27 26 26 27 32 30 36 36 34 30 29 28 28 30 29 31 29 27 25 26 28 29 30 28 24 22 20 18 17 16 16 17 18 19 20 22 24 25 25 26 27
29 31 31 25 25 21 23 33 37 36 34 40 38 33 29 32 28 28 30 27 26 25 26 28 30 29 27 23 20 19 17 17 17 19 19 19 20 21 23 24 25 26 27 27
23 27 25 26 24 26 26 29 36 26 32 39 38 37 36 32 33 31 32 27 25 26 27 29 28 27 24 21 20 18 18 18 20 21 21 21 22 23 25 25 25 26 26 25
25 24 23 26 24 21 37 36 34 39 38 39 38 37 36 37 33 30 32 26 25 26 28 27 25 24 20 20 19 19 19 20 21 22 21 21 23 24 24 24 25 25 25 24
21 24 20 22 18 24 23 27 38 41 36 37 38 39 40 38 33 27 28 27 26 26 25 24 23 21 20 20 20 19 20 21 21 21 21 23 24 24 24 24 23 23 24 26
25 25 24 25 23 27 29 28 29 32 36 34 42 43 45 38 34 27 28 26 24 23 21 20 19 19 19 20 19 19 21 21 21 21 21 22 23 24 24 24 25 24 25 26
26 27 25 24 25 23 26 30 32 32 34 33 38 44 46 44 41 29 26 26 24 22 22 20 19 19 19 20 19 20 21 22 21 21 22 23 24 24 24 25 25 25 26 29
27 25 24 21 21 23 26 27 27 26 27 30 32 36 44 46 45 40 28 26 24 23 22 21 21 20 21 20 20 21 23 22 22 23 23 24 25 26 27 27 27 30 34 34

GFSCGP_sfc_30mbdewp_006.txt.gz
Dewpoint
29 23 19 24 25 20 16 19 18 20 22 25 24 24 25 27 34 34 33 33 33 32 33 33 32 31 27 23 23 25 24 24 27 27 27 27 26 27 29 29 30 28 30 30
28 23 20 26 26 24 22 18 16 20 22 24 23 24 26 28 30 32 32 32 32 32 32 33 32 30 28 23 23 24 25 24 26 27 27 27 27 27 28 30 31 29 29 30
25 25 28 25 25 25 24 20 20 19 21 24 24 23 24 26 28 30 32 32 32 31 31 33 32 30 27 24 23 22 24 24 27 27 29 29 30 30 29 30 28 28 30 30
27 27 25 27 25 24 21 24 23 21 20 17 23 13 17 20 20 25 29 31 32 32 32 32 32 29 26 25 24 23 24 25 27 28 27 27 26 25 27 27 28 28 28 27
24 24 26 25 24 23 21 24 23 22 20 20 20 18 17 20 18 17 19 23 29 32 32 32 32 29 25 24 24 23 23 25 27 27 28 27 27 28 28 29 28 27 27 29
24 27 25 24 24 24 23 23 25 27 24 18 19 18 13 15 17 16 16 17 22 32 32 32 32 28 24 23 23 23 23 25 26 27 27 27 27 28 29 28 28 27 28 29
19 17 24 24 22 26 24 21 16 16 19 15 18 19 16 14 15 15 14 17 23 31 32 32 31 28 24 23 23 24 24 24 26 26 27 28 27 27 27 27 27 26 27 27
16 12 20 24 23 21 24 20 16 10 10 10 20 15 14 19 17 17 19 20 23 32 32 32 32 30 26 24 23 24 24 25 25 26 27 27 27 27 27 27 27 27 27 27
17 19 22 23 23 23 21 22 20 15 17 15 16 21 18 22 21 20 21 21 23 29 32 32 32 30 28 25 24 24 25 25 25 26 27 26 26 25 25 27 28 28 27 28
22 20 21 21 24 24 22 24 20 21 15 13 13 14 12 14 15 16 20 22 23 30 32 33 32 30 28 26 25 25 26 25 26 26 26 25 24 23 24 25 25 26 27 28
29 24 25 25 23 21 23 22 24 22 20 15 13 13 16 15 15 14 16 21 24 29 32 33 33 32 29 25 25 26 27 26 27 27 26 25 23 21 21 22 23 24 25 25
40 39 31 27 25 25 23 21 21 20 19 20 17 15 17 16 16 17 16 18 25 31 32 33 32 32 30 27 27 27 27 27 28 28 27 25 22 21 20 21 22 23 24 25
40 37 33 32 31 29 28 28 27 22 22 20 19 19 21 21 20 18 19 20 24 28 32 32 31 31 31 29 28 27 27 28 29 28 27 25 22 20 20 20 22 23 24 24
40 37 36 31 33 33 31 31 34 33 25 22 21 21 22 21 18 19 19 19 21 25 31 32 31 30 31 31 29 28 28 29 29 28 26 24 22 20 20 21 22 23 24 24
36 30 31 32 30 30 29 28 29 31 31 28 30 29 23 23 23 23 21 19 20 23 30 32 31 30 30 30 30 29 29 28 28 26 25 23 20 20 21 21 22 23 24 24
34 26 27 27 28 26 23 25 28 31 26 29 32 32 31 27 25 24 23 21 20 21 26 30 32 30 28 29 29 28 27 26 26 24 23 21 20 20 21 21 22 22 23 25
27 28 24 20 21 21 20 20 26 24 23 29 30 37 35 33 34 29 24 25 22 19 22 28 31 31 29 28 28 26 24 24 23 21 21 20 20 20 21 22 22 23 24 26
29 27 26 22 22 17 20 23 24 25 24 35 38 38 37 37 36 35 33 26 26 22 22 26 29 31 29 28 26 25 23 22 21 20 19 19 20 20 21 21 22 24 26 25
28 31 28 24 21 23 24 23 31 33 32 33 35 37 36 36 36 35 34 36 33 27 25 25 27 30 29 27 24 23 22 20 19 19 19 18 19 19 19 21 23 25 25 25
21 28 27 22 19 16 12 25 33 34 27 38 38 36 35 35 31 35 39 39 39 33 30 25 28 30 27 25 22 22 21 19 18 18 18 18 19 19 21 23 24 25 25 25
25 26 24 24 22 25 29 30 28 20 24 35 36 34 35 35 36 40 42 42 35 31 30 30 30 29 26 24 22 21 19 18 18 19 19 19 20 21 22 24 25 25 25 26
25 23 20 20 21 14 34 21 22 26 34 36 35 33 37 40 41 42 43 41 30 29 31 30 28 26 23 22 21 20 18 20 20 21 21 21 21 23 24 24 24 25 25 25
20 23 20 22 18 21 25 25 29 29 26 32 34 34 40 39 42 44 42 42 26 28 28 28 25 23 21 21 20 19 20 21 22 21 21 21 22 23 24 24 24 24 24 24
25 26 26 29 27 25 25 25 26 25 30 32 33 33 40 37 42 43 41 42 33 24 25 25 23 22 20 20 20 20 21 22 21 21 21 22 23 23 24 24 24 24 24 25
27 27 24 25 25 25 25 25 25 26 28 29 29 29 31 39 42 41 42 42 42 23 22 23 22 21 20 20 20 21 22 22 21 20 21 22 23 27 25 25 25 25 26 27
28 26 25 24 25 24 24 25 27 28 29 26 26 27 31 36 41 43 43 43 44 25 22 21 21 21 21 20 20 22 23 22 21 21 22 23 24 25 26 26 27 30 34 35

GFSCGP_sfc_30mbdewp_009.txt.gz
Dewpoint
29 24 16 22 25 20 16 17 14 17 19 24 23 24 24 25 31 32 35 34 34 33 33 33 33 33 32 28 26 25 26 28 28 28 28 28 27 28 29 30 30 28 30 31
28 22 22 25 26 26 24 19 18 20 21 23 21 21 25 26 28 28 30 34 34 34 34 34 33 32 31 27 25 25 25 27 27 28 28 26 27 27 28 30 30 30 29 30
24 19 29 26 23 22 23 23 20 17 18 24 24 21 23 25 27 29 30 31 32 33 33 34 33 32 31 27 24 24 25 26 27 28 28 28 29 30 29 31 30 29 29 30
26 26 24 25 25 24 17 24 24 22 22 20 23 11 15 20 21 25 27 28 31 32 33 33 33 33 31 28 25 24 25 25 27 28 28 26 26 25 27 28 29 28 29 28
21 24 24 26 23 25 25 24 24 24 23 21 21 18 16 19 17 17 18 23 26 29 32 32 32 33 31 29 24 24 25 25 26 28 28 27 26 26 28 28 27 27 27 27
21 25 25 25 25 26 25 24 25 28 24 19 19 17 14 13 16 17 18 19 20 22 28 33 32 33 32 29 25 24 25 25 27 28 28 27 26 27 27 28 27 27 28 29
18 19 24 22 20 25 25 22 19 16 19 16 17 17 15 14 17 17 17 16 17 18 22 31 32 33 31 28 26 25 24 25 27 27 28 27 26 27 27 27 28 28 27 28
17 17 18 21 20 17 23 21 17 12 13 11 20 15 14 18 19 19 19 17 18 19 28 32 33 32 29 27 26 26 25 25 26 27 28 28 27 28 28 28 28 27 27 27
19 18 22 23 22 23 20 21 22 18 17 15 14 16 19 21 21 20 21 20 21 22 27 31 33 32 29 25 25 26 25 25 26 26 27 28 28 28 28 28 28 28 28 29
31 26 25 24 24 24 23 23 19 20 16 15 16 15 14 14 14 15 16 19 21 23 27 31 33 32 29 25 25 25 25 25 25 26 27 27 27 28 28 27 27 28 28 28
39 35 32 32 29 27 25 23 23 22 20 17 15 16 18 17 17 17 16 16 17 19 24 31 33 32 30 27 26 25 25 25 25 25 26 26 26 26 25 25 25 27 27 27
40 39 33 33 34 33 30 25 26 24 24 23 19 18 20 18 17 17 18 19 20 21 24 31 33 32 30 28 26 26 25 25 25 26 26 26 26 24 23 22 23 24 24 26
37 35 27 25 28 33 32 30 30 31 32 29 26 24 27 30 31 33 29 22 21 21 25 32 33 32 30 27 26 26 26 25 26 26 26 26 25 23 21 21 21 23 23 24
32 33 30 25 27 29 27 27 28 29 25 24 25 26 26 27 28 34 34 31 23 21 24 29 32 32 32 28 26 27 27 27 27 27 27 26 24 23 22 21 21 22 23 23
29 24 25 24 23 24 23 27 28 25 27 25 19 16 19 22 31 35 36 36 36 32 24 26 30 32 32 31 28 27 27 27 28 28 27 27 26 23 22 21 21 22 23 23
30 25 24 23 23 22 22 21 22 26 23 21 24 28 31 31 38 36 36 37 36 34 34 26 29 32 31 31 30 29 28 28 28 27 27 27 25 23 22 21 22 22 23 24
25 24 23 20 21 21 19 19 18 19 20 20 24 29 37 37 35 34 34 36 35 37 38 38 34 30 31 31 31 30 29 29 28 27 27 26 24 23 22 21 22 22 22 24
24 24 25 22 23 16 20 22 23 23 22 28 33 37 37 33 35 35 33 36 36 39 41 41 41 36 32 31 31 30 29 28 27 26 25 24 23 22 22 21 22 22 23 25
25 26 23 17 16 17 19 20 24 24 26 37 30 30 34 34 36 30 33 37 39 42 42 42 40 38 32 31 30 29 27 27 26 25 23 22 22 21 21 21 21 23 25 25
25 26 22 20 18 15 18 20 28 26 23 29 22 30 31 34 31 30 35 38 41 42 41 40 32 31 31 31 29 26 26 25 24 23 22 21 21 21 20 21 22 24 25 24
19 23 22 20 18 17 19 26 29 18 20 24 27 31 31 33 34 35 39 41 43 40 41 39 31 31 31 28 27 25 24 23 23 22 21 20 20 20 20 21 24 24 25 25
20 20 18 18 18 14 28 22 20 23 28 28 29 27 32 34 35 37 39 42 43 41 41 36 30 31 28 25 25 24 23 22 21 21 20 20 20 20 22 22 24 25 25 25
20 21 18 20 20 21 23 25 28 29 29 27 27 31 30 30 31 36 36 42 41 41 41 33 26 24 24 24 23 22 21 21 21 20 20 20 21 22 23 23 24 24 24 24
24 25 26 27 25 25 27 27 27 27 27 27 28 28 30 30 30 28 30 42 42 42 43 28 24 22 21 21 21 22 22 22 20 20 20 21 22 23 24 24 24 24 24 25
26 27 25 27 28 28 27 26 26 27 27 28 28 30 29 28 29 31 35 41 43 44 44 32 30 22 21 22 22 22 22 21 20 21 22 22 23 25 23 24 24 25 25 26
29 27 27 26 25 27 27 27 28 28 28 28 28 27 28 29 30 30 31 41 43 44 45 41 28 31 22 21 22 24 23 21 21 21 22 23 24 27 25 25 26 32 33 36

GFSCGP_sfc_30mbdewp_012.txt.gz
Dewpoint
29 22 11 21 25 24 18 17 16 16 19 23 22 23 23 24 28 26 27 29 31 32 33 34 33 34 36 34 30 28 29 31 31 30 29 29 28 29 29 30 30 29 32 32
27 18 19 24 24 25 25 23 22 20 20 22 20 19 21 23 25 26 26 28 30 33 33 34 33 33 33 33 31 27 28 30 30 29 29 28 28 28 29 30 31 30 30 31
19 9 28 26 24 22 22 21 20 19 21 21 21 17 17 23 24 27 28 28 28 31 32 34 34 33 33 32 30 28 27 29 29 29 29 28 29 29 29 29 30 31 29 30
25 26 23 24 23 23 18 22 21 21 21 17 22 13 13 16 18 21 25 28 28 29 31 33 34 34 33 32 30 29 27 28 28 29 28 26 26 25 27 28 30 30 29 30
16 21 23 24 24 25 22 24 24 25 23 22 21 19 14 18 16 17 18 21 26 28 30 31 33 34 34 33 30 28 27 27 28 29 29 27 26 26 27 28 28 29 29 28
22 25 23 22 25 26 25 24 25 28 24 20 19 18 11 10 15 15 16 17 18 20 24 29 33 33 34 34 30 28 26 26 27 28 28 27 26 26 26 27 27 27 28 28
18 19 24 23 21 22 23 21 16 15 20 16 17 17 14 15 16 15 15 16 17 17 18 23 28 32 33 33 30 28 27 26 27 28 28 28 27 26 26 26 27 27 27 28
18 17 19 24 21 18 21 20 15 12 12 12 19 15 15 18 19 20 20 20 20 19 20 22 24 31 33 32 29 27 27 27 27 27 28 28 28 28 28 27 28 28 28 28
27 21 29 31 29 24 22 21 22 18 18 17 17 17 19 19 18 19 19 19 20 21 23 25 28 33 33 31 29 27 26 27 27 27 28 28 28 29 28 28 29 29 29 29
36 32 33 31 33 29 26 24 23 23 19 18 18 18 18 19 19 24 28 29 30 28 25 23 29 32 33 30 29 28 27 26 27 27 27 27 27 28 29 29 28 28 28 29
39 36 31 34 33 33 32 29 26 24 23 24 25 23 20 27 28 27 27 28 33 34 33 26 27 33 33 29 27 27 27 27 27 27 27 27 27 28 28 28 28 28 28 28
36 36 25 25 27 32 33 32 33 29 27 27 25 24 28 27 23 21 21 28 34 36 36 34 30 33 32 28 26 26 27 27 27 27 27 27 27 27 27 27 27 28 27 28
29 28 21 15 16 28 26 27 27 27 30 24 22 23 26 26 19 20 18 35 37 37 37 37 33 32 32 30 27 26 26 26 26 26 26 27 26 26 25 25 25 26 26 26
30 29 24 20 22 25 22 22 21 19 18 16 18 23 22 21 22 22 28 36 36 35 35 36 37 35 32 31 29 27 26 26 26 26 26 26 26 25 25 24 23 23 24 23
27 23 23 22 22 23 22 22 21 20 20 19 20 20 20 24 24 26 35 36 33 31 34 36 38 40 38 33 29 27 27 26 27 26 26 26 26 25 24 23 23 22 23 23
28 24 23 23 22 21 19 20 21 21 21 20 19 19 26 36 37 34 31 32 33 33 35 37 39 41 41 38 32 28 27 27 27 26 26 26 26 25 24 23 22 22 22 23
26 24 22 17 20 22 18 16 19 20 23 21 22 29 32 31 30 32 33 34 34 34 36 38 41 42 41 41 37 31 28 28 28 27 27 27 26 25 24 24 23 22 22 23
25 24 23 20 20 10 7 14 17 19 18 26 31 26 26 31 32 33 34 35 34 35 37 40 41 41 41 40 38 34 30 28 28 27 28 27 26 25 24 23 22 22 22 23
25 25 22 18 14 15 16 20 21 20 22 29 28 25 25 27 29 29 33 33 34 35 39 41 41 40 41 37 32 33 31 29 28 27 27 27 26 25 24 23 22 22 23 24
27 26 23 19 16 12 11 14 18 29 18 29 28 26 27 28 25 25 30 31 34 36 40 42 41 41 41 31 31 32 31 29 28 28 27 26 25 24 24 23 22 23 24 23
17 20 19 19 16 16 18 19 31 18 21 28 29 28 28 27 27 30 31 29 31 35 40 42 41 41 35 27 31 32 31 29 29 28 26 25 25 24 23 22 23 23 24 24
20 19 17 17 17 13 22 22 21 25 27 28 28 29 27 27 29 29 30 30 31 30 35 42 43 40 27 25 29 32 29 29 28 26 24 24 23 23 22 22 23 24 24 24
20 19 16 19 18 21 22 24 27 29 29 29 29 28 28 28 29 30 31 30 30 31 42 43 44 37 24 23 28 28 27 25 24 23 23 22 21 22 22 22 23 24 25 25
22 24 25 24 22 24 25 26 29 30 29 28 29 29 29 29 30 30 30 30 32 32 42 44 43 39 23 23 23 25 24 24 23 22 21 21 21 22 22 23 24 25 25 24
24 25 24 26 27 28 28 29 31 32 30 29 29 29 29 30 29 30 31 32 32 35 43 44 43 41 29 23 23 23 23 22 21 21 20 21 25 22 23 24 24 24 25 25
27 26 25 25 27 29 30 31 31 29 29 29 29 30 31 32 31 31 32 32 34 35 42 42 42 42 35 25 24 23 22 21 21 20 21 25 24 24 25 24 27 29 28 32

GFSCGP_sfc_30mbdewp_015.txt.gz
Dewpoint
30 19 8 14 25 23 21 19 19 19 20 19 18 19 21 22 26 26 26 26 27 28 29 33 35 36 38 40 39 37 38 36 35 34 32 32 31 31 32 33 32 35 36 35
24 13 16 22 23 23 22 21 19 21 22 22 20 18 20 21 20 21 24 25 25 26 29 32 34 35 35 37 38 35 35 35 34 35 32 30 30 30 31 34 33 33 35 34
13 12 27 24 23 21 23 20 18 16 19 22 21 15 15 20 22 23 26 26 26 27 27 29 34 34 35 36 36 35 34 35 34 34 33 31 31 32 31 32 33 33 32 34
23 26 23 23 23 23 20 21 19 19 20 14 22 10 14 14 14 20 23 27 27 28 30 30 32 35 35 35 36 35 34 34 34 34 32 30 29 28 30 30 32 33 31 32
16 20 22 23 21 25 20 25 23 24 23 23 21 19 11 16 14 14 16 20 24 26 27 28 31 34 35 35 36 35 33 33 33 32 32 31 30 31 31 31 31 32 32 31
23 26 23 22 23 26 26 25 25 28 25 19 18 17 13 13 14 17 16 17 18 21 22 25 28 33 35 37 37 36 33 32 33 32 32 32 31 31 30 30 30 31 32 31
21 20 24 24 21 23 23 21 17 14 19 16 19 18 15 16 17 17 18 22 26 30 30 29 27 28 31 37 37 36 34 32 32 32 32 31 32 30 29 30 30 30 30 30
23 20 20 30 30 27 25 22 19 14 13 14 18 16 16 18 20 27 29 30 30 32 32 33 32 32 31 33 37 36 33 32 31 31 31 31 32 31 30 30 30 30 30 30
33 29 31 30 32 28 24 23 24 23 24 21 20 20 21 21 25 26 24 20 20 26 31 34 36 35 34 33 35 34 32 31 30 30 31 30 30 30 30 30 31 31 30 30
37 26 31 34 30 27 31 30 25 25 20 17 19 20 21 24 27 25 22 20 19 27 33 36 37 37 35 34 34 32 31 30 30 29 29 30 29 30 30 30 30 31 30 29
33 34 24 25 21 25 21 19 17 25 23 21 20 22 28 25 26 18 13 21 22 30 34 36 37 37 36 34 32 31 30 29 29 29 29 29 29 29 29 29 30 30 30 31
28 32 20 18 21 22 23 28 21 18 15 19 18 16 21 25 15 14 21 21 23 26 32 37 36 37 38 37 33 29 29 28 29 29 29 29 29 29 29 28 28 29 29 31
26 23 13 2 11 17 17 18 17 19 20 13 11 7 12 15 17 20 24 28 28 33 35 34 33 37 39 40 38 31 28 29 29 28 28 28 29 29 28 28 28 28 28 29
28 28 22 11 14 24 20 21 22 22 19 18 17 17 19 21 22 31 33 35 33 33 33 34 35 37 39 42 41 36 30 28 29 28 28 29 28 29 28 28 28 27 27 27
29 24 23 22 22 22 22 22 22 20 20 19 19 20 22 26 31 29 29 30 31 32 33 34 34 36 38 41 41 41 33 29 28 28 28 29 29 29 28 28 27 26 26 25
27 22 23 22 22 20 19 20 20 20 19 19 20 22 28 32 30 28 28 29 31 33 34 34 34 35 38 40 40 41 40 32 28 27 27 29 29 28 28 27 26 26 26 24
25 23 21 18 19 19 18 18 12 11 14 16 19 22 30 31 27 26 28 30 31 33 33 33 32 34 37 40 40 41 41 37 30 27 27 28 28 28 27 27 26 26 25 24
26 26 23 18 20 12 13 14 15 17 18 19 22 31 29 28 28 29 29 27 32 29 30 31 32 34 38 42 41 41 41 33 33 28 27 27 27 27 27 26 25 25 25 24
29 26 22 18 14 15 16 14 12 16 21 24 28 26 27 28 29 27 26 27 28 30 30 30 31 35 39 42 41 41 35 30 32 29 28 27 27 27 26 26 26 25 24 24
25 26 23 19 15 12 10 13 19 24 18 28 27 27 28 28 26 25 27 29 29 30 31 31 33 32 39 42 42 36 28 28 32 30 29 28 27 27 27 27 26 25 24 24
18 19 18 17 17 17 17 19 26 17 17 26 29 29 29 28 29 29 30 30 30 31 32 32 32 36 42 43 40 32 25 25 31 32 29 29 28 27 27 27 26 25 24 25
18 18 17 18 16 12 20 20 21 24 26 28 30 30 30 30 30 30 30 31 31 31 31 32 34 41 43 42 36 25 23 26 34 32 30 29 28 26 27 26 26 24 25 25
19 20 18 19 19 20 21 21 25 28 28 30 30 31 31 30 30 31 31 31 31 31 32 33 36 43 42 41 32 24 24 29 35 31 29 27 27 26 26 25 25 24 25 25
22 23 25 25 22 23 25 26 28 30 31 32 32 31 31 30 31 31 31 31 32 32 32 34 38 42 42 40 28 24 25 29 30 29 27 26 25 24 24 24 23 24 25 25
23 24 26 26 26 27 29 30 32 32 30 29 29 30 30 31 32 32 32 32 32 32 32 35 38 42 42 37 31 27 24 26 26 25 24 24 25 24 23 23 24 24 25 25
26 25 25 25 30 32 32 34 34 30 28 28 28 29 32 32 31 30 31 31 31 31 33 35 38 42 40 36 34 32 25 23 23 22 23 25 24 24 24 25 27 29 29 31